map of OSL home
OSL - Airport
Location
City:  Oslo, Akershus, Norway
Name:Oslo Airport Gardermoen
ICAO:ENGM
IATA:OSL

Details
Type:Airport (Aerodrome, Airfield)
Use:Public/Civil, Military, International (customs port of entry)
Latitude:6011'38"N (60.193917)
Longitude:1106'01"E (11.100361)
Datum:WGS 1984
Elevation:681 ft (208 m)
Variation:3.58E (WMM2015 magnetic declination)
0.17 annual change
Runways:2
Longest:11811 × 148 ft (3600 × 45 m), paved

Time
Time Zone:UTC+1 (DST+2)
Local Time:

Weather
METAR:ENGM 220450Z 01001KT 5000 BR BKN003 M08/M09 Q1010
TAF:ENGM 212300Z 2200/2224 02005KT 9999 BKN012 PROB40 2200/2206 SCT012 BKN020
TEMPO 2212/2224 4000 -SN BKN008 PROB30 2212/2224 -FZDZ

Related Locations
Nearby:
Farthest:CHT: 11254 mi / 18112 km
Waitangi [Tuuta], CIT, NZ

Find:

   beyond  
but within

Other Information
Maps:
NOTAMs:
Links:
Sources:

  
  • flag of Norway
  

Airport Diagram

Airport diagram for OSL

Larger airport diagram (OBSOLETE) from NGA

Sectional Chart

Flight Planning
at skyvector.com

Satellite Image

Google Maps Satellite view

 

Copyright © 2004-2019 Karl L. Swartz. All rights reserved.
The Great Circle Mapper name and logo are trademarks of the Great Circle Mapper.
All other trademarks mentioned herein belong to their respective owners.
Please see credits for attibutions and further copyright information.

  Follow gcmap on Facebook Follow gcmap on Twitter Follow gcmap on Google+ GCmap on LinkedIn

hCard Microformat

Geo Microformat